Location: D�pe
(52.6057°N, 8.1808°E)
Time: 01:16:50
(UTC+00:00)

Cosmos 2228 - Pass Details

Date: 29 October 2020
Orbit: 590 x 617 km, 82.5° (Epoch: 23 November)

Event Time Altitude Azimuth Distance (km) Brightness Sun altitude
Rises 17:23:59 0° 202° (SSW) 2,820 6.8 -12.9°
Reaches altitude 10° 17:26:13 10° 208° (SSW) 1,926 6.0 -13.2°
Maximum altitude 17:30:22 53° 285° (WNW) 743 3.8 -13.8°
Drops below altitude 10° 17:34:37 10° 3° (N) 1,956 5.6 -14.5°
Sets 17:36:54 0° 8° (N) 2,868 6.4 -14.8°
